LEMUR-2-ARTFISCHER (42881 NORAD) Tracking and Keplerian Element Data

This shows tracking and keplerian element data for the satellite.

Feedback or suggestion? Click here.




ElementValue
Catalog42881
NameLEMUR-2-ARTFISCHER
Epoch Orbit23588
Epoch Day269.08330613
Epoch Year2021
RAAN115.9369
Inclination96.8342
Eccentricity0.0010864
Argument of Perigee63.2259
Mean Anonmoly297.0103
Mean Motion15.47962187
Decay Rate0.00019309
L11 42881U 17042BJ 21269.08330613 .00019309 00000-0 37036-3 0 9995
L22 42881 96.8342 115.9369 0010864 63.2259 297.0103 15.47962187235885

Live tracking and technical data element details for LEMUR-2-ARTFISCHER (NORAD 42881). LEMUR-2-ARTFISCHER can be tracked NOW for your location showing map with azimuth and elevation plus other details from your city location.

Track the satellite on the map from your city or location and see movement details for azimuth, elevation, latitude, longitude, range, height, and movement on the map or in text.







IsCatalogInMostPopularTable: catalog: 42881, numindb: 518
Update: records affected: 1



GetName: 42881 LEMUR-2-ARTFISCHER

Hit Count: updated at: Mon, 27 Sep 2021 00:42:20 GMT